| time (UTC) | temp F | wind direction | speed MPH | gust MPH | rain 1hr in | rain 24hr in | rain mn in | humidity % | barometer mb |
| 20260504184555 | 71 | 360 | 4.0 | 12.0 | 0.00 | 0.00 | 0.00 | 39 | 1015.7 |
| 20260504183037 | 71 | 360 | 3.0 | 11.0 | 0.00 | 0.00 | 0.00 | 37 | 1015.9 |
| 20260504181544 | 72 | 232 | 7.0 | 14.0 | 0.00 | 0.00 | 0.00 | 36 | 1016.1 |
| 20260504180036 | 72 | 190 | 6.0 | 13.0 | 0.00 | 0.00 | 0.00 | 36 | 1016.0 |
| 20260504174545 | 69 | 243 | 5.0 | 14.0 | 0.00 | 0.00 | 0.00 | 38 | 1016.1 |
| 20260504173036 | 68 | 41 | 3.0 | 11.0 | 0.00 | 0.00 | 0.00 | 38 | 1016.0 |
| 20260504171543 | 67 | 67 | 9.0 | 15.0 | 0.00 | 0.00 | 0.00 | 38 | 1016.0 |
| 20260504081541 | 35 | 0 | 0.0 | 0.0 | 0.00 | 0.00 | 0.00 | 91 | 1017.4 |
| 20260504044544 | 40 | 0 | 0.0 | 1.0 | 0.00 | 0.00 | 0.00 | 80 | 1017.7 |
| 20260504043040 | 41 | 0 | 0.0 | 0.0 | 0.00 | 0.00 | 0.00 | 79 | 1017.4 |
| 20260504041538 | 41 | 31 | 0.0 | 1.0 | 0.00 | 0.00 | 0.00 | 78 | 1017.5 |
| 20260504040041 | 42 | 0 | 0.0 | 0.0 | 0.00 | 0.00 | 0.00 | 76 | 1017.5 |
| 20260504034541 | 42 | 0 | 0.0 | 0.0 | 0.00 | 0.00 | 0.00 | 74 | 1017.3 |
| 20260504033043 | 43 | 0 | 0.0 | 2.0 | 0.00 | 0.00 | 0.00 | 73 | 1017.2 |
| 20260504031541 | 44 | 31 | 1.0 | 4.0 | 0.00 | 0.00 | 0.00 | 72 | 1017.2 |
| 20260504030042 | 44 | 0 | 0.0 | 1.0 | 0.00 | 0.00 | 0.00 | 68 | 1017.3 |
| 20260504024539 | 45 | 0 | 0.0 | 2.0 | 0.00 | 0.00 | 0.00 | 66 | 1017.5 |
| 20260504023044 | 46 | 275 | 0.0 | 2.0 | 0.00 | 0.00 | 0.00 | 63 | 1017.5 |
| 20260504021539 | 47 | 0 | 0.0 | 2.0 | 0.00 | 0.00 | 0.00 | 62 | 1017.4 |
| 20260504020039 | 48 | 275 | 1.0 | 3.0 | 0.00 | 0.00 | 0.00 | 59 | 1017.2 |
| 20260504014552 | 50 | 0 | 0.0 | 3.0 | 0.00 | 0.00 | 0.00 | 56 | 1016.9 |
| 20260504013038 | 51 | 0 | 0.0 | 3.0 | 0.00 | 0.00 | 0.00 | 51 | 1016.6 |
| 20260504011544 | 52 | 0 | 0.0 | 4.0 | 0.00 | 0.00 | 0.00 | 49 | 1016.5 |
| 20260504010042 | 52 | 32 | 2.0 | 5.0 | 0.00 | 0.00 | 0.00 | 50 | 1016.4 |
| 20260504004548 | 54 | 90 | 3.0 | 7.0 | 0.00 | 0.00 | 0.00 | 43 | 1016.3 |
| 20260504003050 | 55 | 63 | 3.0 | 7.0 | 0.00 | 0.00 | 0.00 | 43 | 1016.3 |
| 20260504001545 | 55 | 44 | 3.0 | 8.0 | 0.00 | 0.00 | 0.00 | 41 | 1016.1 |
| 20260504000047 | 56 | 74 | 4.0 | 10.0 | 0.00 | 0.00 | 0.00 | 40 | 1016.0 |
| 20260503234546 | 58 | 45 | 2.0 | 10.0 | 0.00 | 0.00 | 0.00 | 39 | 1016.0 |
| 20260503233044 | 59 | 49 | 3.0 | 11.0 | 0.00 | 0.00 | 0.00 | 36 | 1015.9 |
| 20260503231545 | 60 | 28 | 7.0 | 11.0 | 0.00 | 0.00 | 0.00 | 34 | 1015.9 |
| 20260503230045 | 60 | 92 | 3.0 | 9.0 | 0.00 | 0.00 | 0.00 | 32 | 1015.8 |
| 20260503224543 | 61 | 5 | 5.0 | 11.0 | 0.00 | 0.00 | 0.00 | 31 | 1015.8 |
| 20260503223039 | 62 | 88 | 5.0 | 11.0 | 0.00 | 0.00 | 0.00 | 31 | 1015.8 |
| 20260503221537 | 62 | 53 | 5.0 | 13.0 | 0.00 | 0.00 | 0.00 | 27 | 1015.8 |
| 20260503220050 | 62 | 27 | 1.0 | 11.0 | 0.00 | 0.00 | 0.00 | 29 | 1015.9 |
| 20260503214541 | 63 | 352 | 5.0 | 16.0 | 0.00 | 0.00 | 0.00 | 23 | 1015.9 |
| 20260503213038 | 62 | 288 | 4.0 | 16.0 | 0.00 | 0.00 | 0.00 | 24 | 1016.0 |
| 20260503211537 | 62 | 360 | 6.0 | 14.0 | 0.00 | 0.00 | 0.00 | 25 | 1016.2 |
| 20260503210047 | 62 | 19 | 3.0 | 14.0 | 0.00 | 0.00 | 0.00 | 25 | 1016.3 |
| 20260503204543 | 61 | 31 | 8.0 | 16.0 | 0.00 | 0.00 | 0.00 | 29 | 1016.3 |
| 20260503203053 | 61 | 352 | 5.0 | 16.0 | 0.00 | 0.00 | 0.00 | 28 | 1016.4 |
| 20260503201537 | 61 | 51 | 8.0 | 15.0 | 0.00 | 0.00 | 0.00 | 30 | 1016.7 |
| 20260503200042 | 61 | 107 | 5.0 | 12.0 | 0.00 | 0.00 | 0.00 | 33 | 1016.9 |
| 20260503194544 | 61 | 252 | 3.0 | 10.0 | 0.00 | 0.00 | 0.00 | 33 | 1016.9 |
| 20260503193048 | 60 | 92 | 2.0 | 12.0 | 0.00 | 0.00 | 0.00 | 34 | 1017.2 |
| 20260503191550 | 60 | 5 | 4.0 | 10.0 | 0.00 | 0.00 | 0.00 | 33 | 1017.3 |
| 20260503190038 | 59 | 42 | 6.0 | 13.0 | 0.00 | 0.00 | 0.00 | 35 | 1017.4 |